Regional Weather Roundup
Issued by NWS

Home | Current Version | Previous Version | Text Only | Print | Product List | Glossary Off
Versions: 1 2 3 4 5 6 7 8 9 10 11 12 13 14 15 16 17 18 19 20 21 22 23 24 25 26 27 28 29 30 31 32 33 34 35 36 37 38 39 40 41 42 43 44 45 46 47 48 49 50

000
ASUS43 KDTX 280910
RWRMI
MICHIGAN HOURLY REGIONAL WEATHER ROUNDUP
NATIONAL WEATHER SERVICE DETROIT/PONTIAC MI
400 AM EST SUN DEC 28 2014

NOTE: "FAIR" INDICATES FEW OR NO CLOUDS BELOW 12,000 FEET WITH NO
SIGNIFICANT WEATHER AND/OR OBSTRUCTION TO VISIBILITY.

MIZ047>049-052>055-059>063-066>070-074>076-081>083-281000-
SOUTHEAST LOWER MICHIGAN

CITY           SKY/WX    TMP DP  RH WIND       PRES   REMARKS
ADRIAN         CLOUDY    35  29  78 W6        30.03F
ALMA           CLOUDY    32  31  96 W3        30.02S
ANN ARBOR      CLOUDY    35  29  78 W12       30.01R
BAD AXE        CLOUDY    33  29  86 NW5       29.99S
DETROIT CITY   CLOUDY    39  29  67 NW7       30.00F
DETROIT        CLOUDY    37  29  72 W7        30.01S
FLINT          CLOUDY    37  31  78 W6        30.01R
GROSSE ILE     CLOUDY    37  30  75 W6        30.00S
HILLSDALE      CLOUDY    34  31  88 W6        30.01F
HOWELL         CLOUDY    34  32  91 W8        30.00S

CITY           SKY/WX    TMP DP  RH WIND       PRES   REMARKS
JACKSON        CLOUDY    34  29  82 W9        30.01F
LAMBERTVILLE   CLOUDY    36  32  87 W5        30.03S
LANSING        CLOUDY    35  31  85 W7        30.02S
LAPEER         NOT AVBL
MASON          CLOUDY    33  30  88 W5        30.01F
MONROE         CLOUDY    37  30  75 W5        30.00F
MT. CLEMENS    CLOUDY    37  32  81 W9        29.97S
PONTIAC        CLOUDY    35  30  82 W13       29.98R
PORT HOPE        N/A     34  25  69 NW13      29.97R
PORT HURON     MIX PCPN  36  32  87 W9        29.99R
TRI CITIES     CLOUDY    35  30  82 W5        30.01R
YPSILANTI      CLOUDY    39  29  67 NW13      30.01S
$$
MIZ043>046-050>051-056>058-064>065-071>073-077>080-281000-
SOUTHWEST LOWER MICHIGAN

CITY           SKY/WX    TMP DP  RH WIND       PRES   REMARKS
BATTLE CREEK   CLOUDY    35  30  82 W12       30.03F
BENTON HARBOR  CLOUDY    33  27  78 NW7       30.09S
BIG RAPIDS     CLOUDY    32  29  89 NW9G17    30.01R
COLDWATER      CLOUDY    33  30  89 W7        30.03F
HOLLAND        CLOUDY    35  27  72 W13       30.07S
GRAND RAPIDS   CLOUDY    33  30  88 NW13      30.04S
KALAMAZOO      MIX PCPN  35  29  78 W7        30.04F
MARSHALL       CLOUDY    33  30  90 W5        30.02F
MUSKEGON       CLOUDY    33  26  75 NW12      30.06S
$$
MIZ016>042-281000-
NORTHERN LOWER MICHIGAN

CITY           SKY/WX    TMP DP  RH WIND       PRES   REMARKS
ALPENA         CLOUDY    31  23  72 W3        29.96R
BEAVER ISLAND  PTCLDY    26  19  75 W9        29.98R
BELLAIRE       CLOUDY    32  24  72 W5        29.99R
CADILLAC       CLOUDY    29  25  84 W14       29.97R
CHARLEVOIX     CLOUDY    31  25  78 NW12      30.00R
FRANKFORT      CLOUDY    29  24  80 NW10G17   30.03R
GAYLORD        CLOUDY    29  22  75 W8        29.93R
GRAYLING       CLOUDY    30  28  92 W9        29.96R
HARBOR SPRINGS MOCLDY    30  21  70 W7        29.96R
HOUGHTON LAKE  CLOUDY    31  27  85 W8        29.96R
MANISTEE       CLOUDY    30  21  69 NW14      30.04S
OSCODA         CLOUDY    32  26  78 W3        29.97R
PELLSTON       PTCLDY    28  22  78 NW13      29.96R
TRAVERSE CITY  CLOUDY    32  23  69 W14       30.00R
$$
MIZ007>008-015-281000-
EASTERN UPPER MICHIGAN

CITY           SKY/WX    TMP DP  RH WIND       PRES   REMARKS
KINROSS        CLOUDY    27  25  93 W9        29.92S
MACKINAC ISLAN PTCLDY    28  21  76 NW12      29.94S
NEWBERRY       CLOUDY    22  19  89 SW8       29.94S
S. S. MARIE    CLOUDY    28  20  71 W15G23    29.93R
$$
MIZ004>006-011>014-085-281000-
CENTRAL UPPER MICHIGAN

CITY           SKY/WX    TMP DP  RH WIND       PRES   REMARKS
MANISTIQUE     CLOUDY    22  18  87 W6        29.98S
ESCANABA       MOCLDY    19  14  79 W10       29.99S
MENOMINEE      CLEAR     21  16  79 W6        30.03S
SAWYER-GWINN   MOCLDY    15  11  84 W5        29.94S
$$
MIZ001>003-009>011-084-281000-
WESTERN UPPER MICHIGAN

CITY           SKY/WX    TMP DP  RH WIND       PRES   REMARKS
IRON MOUNTAIN    N/A     14  10  84 W3        29.96S
HOUGHTON       LGT SNOW  23  19  85 NW14      29.91S VSB 3/4
COPPER HARBOR    N/A     26  19  74 N15       29.93R
IRONWOOD       CLOUDY    16  12  86 W9        29.96S
$$

ABBREVIATIONS USED IN REMARKS
   TC - TEMPERATURE IN CELSIUS
  WCI - WIND CHILL INDEX
   HX - HEAT INDEX
  VSB - VISIBILITY




USA.gov is the U.S. government's official web portal to all federal, state and local government web resources and services.